Regional Weather Roundup
Issued by NWS

Home | Current Version | Previous Version | Text Only | Print | Product List | Glossary On
Versions: 1 2 3 4 5 6 7 8 9 10 11 12 13 14 15 16 17 18 19 20 21 22 23 24 25 26 27 28 29 30 31 32 33 34 35 36 37 38 39 40 41 42 43 44 45 46 47 48 49 50
000
ASUS43 KDTX 281710
RWRMI
MICHIGAN HOURLY REGIONAL WEATHER ROUNDUP
NATIONAL WEATHER SERVICE DETROIT/PONTIAC MI
100 PM EDT MON JUL 28 2014

NOTE: "FAIR" INDICATES FEW OR NO CLOUDS BELOW 12,000 FEET WITH NO
SIGNIFICANT WEATHER AND/OR OBSTRUCTION TO VISIBILITY.

MIZ047>049-052>055-059>063-066>070-074>076-081>083-281800-
SOUTHEAST LOWER MICHIGAN

CITY           SKY/WX    TMP DP  RH WIND       PRES   REMARKS
ADRIAN         PTSUNNY   68  52  56 N13G18    29.94R
ALMA           CLOUDY    64  50  60 NW12G20   29.97R
ANN ARBOR      PTSUNNY   70  53  54 N12       29.93R
BAD AXE        CLOUDY    57  49  75 N14       29.95R
DETROIT CITY   LGT RAIN  69  52  54 N13G21    29.91S
DETROIT        PTSUNNY   69  53  56 N13       29.92R
FLINT          CLOUDY    65  52  62 N14       29.94R
GROSSE ILE     MOSUNNY   70  54  56 NW14G20   29.90S
HILLSDALE      PTSUNNY   67  56  66 NW10G17   29.96S
HOWELL         PTSUNNY   64  53  67 N12G20    29.94S

CITY           SKY/WX    TMP DP  RH WIND       PRES   REMARKS
JACKSON        PTSUNNY   68  56  65 NW9G16    29.96R
LAMBERTVILLE   PTSUNNY   70  54  56 N9        29.92S
LANSING        CLOUDY    64  54  69 NW7       29.97S
LAPEER         NOT AVBL
MASON          CLOUDY    63  54  71 NW14      29.96R
MONROE         MOSUNNY   70  54  56 N10G17    29.90S
MT. CLEMENS    CLOUDY    65  53  66 N16G23    29.91R
PONTIAC        PTSUNNY   67  51  56 NW15      29.92S
PORT HOPE        N/A     61  50  67 MISG      29.94R
PORT HURON     CLOUDY    59  52  77 NW13G18   29.92R
TRI CITIES     CLOUDY    66  51  58 N13       29.96R
YPSILANTI      CLOUDY    72  52  49 N14       29.93R
$$
MIZ043>046-050>051-056>058-064>065-071>073-077>080-281800-
SOUTHWEST LOWER MICHIGAN

CITY           SKY/WX    TMP DP  RH WIND       PRES   REMARKS
BATTLE CREEK   PTSUNNY   68  54  60 NW13      29.99R
BENTON HARBOR  CLOUDY    56  51  84 NW12G18   30.05R
BIG RAPIDS     PTSUNNY   62  49  62 N9G20     29.99S
COLDWATER      PTSUNNY   69  55  62 NW10      29.97S
HOLLAND        CLOUDY    62  53  72 NW12      30.02S
GRAND RAPIDS   PTSUNNY   66  54  65 NW8       29.99S
KALAMAZOO      PTSUNNY   66  55  67 NW15      30.00R
MARSHALL       PTSUNNY   67  53  61 NW9       29.96F
MUSKEGON       PTSUNNY   64  51  62 W16G22    30.01S
$$
MIZ016>042-281800-
NORTHERN LOWER MICHIGAN

CITY           SKY/WX    TMP DP  RH WIND       PRES   REMARKS
ALPENA         CLOUDY    59  45  59 NW13G18   29.98S
BEAVER ISLAND  SUNNY     62  47  57 N9G16     30.03F
BELLAIRE       CLOUDY    59  44  56 N6        30.02F
CADILLAC       CLOUDY    57  46  67 N12G22    30.01R
CHARLEVOIX     PTSUNNY   61  49  63 NW13      30.07R
FRANKFORT      MOSUNNY   61  46  57 N10G22    30.05S
GAYLORD        CLOUDY    54  42  64 VRB6G17   30.01S
GRAYLING       CLOUDY    56  44  63 NW13G20   30.01S
HARBOR SPRINGS PTSUNNY   62  46  57 N8        30.02F
HOUGHTON LAKE  PTSUNNY   59  46  62 N13       30.00R
MANISTEE       PTSUNNY   59  46  63 N14G24    30.05S
OSCODA         CLOUDY    59  47  63 N10       29.96R
PELLSTON       PTSUNNY   62  46  55 N12       30.02F
TRAVERSE CITY  CLOUDY    60  44  55 N12G23    30.03S
$$
MIZ007>008-015-281800-
EASTERN UPPER MICHIGAN

CITY           SKY/WX    TMP DP  RH WIND       PRES   REMARKS
KINROSS        PTSUNNY   61  46  59 N15       30.00S
MACKINAC ISLAN CLOUDY    60  47  61 N8        30.01S
NEWBERRY       MOSUNNY   61  45  55 N14G21    30.04S
S. S. MARIE    PTSUNNY   62  47  57 NW12G21   30.00S
$$
MIZ004>006-011>014-085-281800-
CENTRAL UPPER MICHIGAN

CITY           SKY/WX    TMP DP  RH WIND       PRES   REMARKS
MANISTIQUE     MOSUNNY   66  47  49 N10G18    30.04F
ESCANABA       PTSUNNY   64  46  52 N9        30.07S
MENOMINEE      SUNNY     63  46  55 S5        30.08S
SAWYER-GWINN   MOSUNNY   64  50  59 N7        30.06F
$$
MIZ001>003-009>011-084-281800-
WESTERN UPPER MICHIGAN

CITY           SKY/WX    TMP DP  RH WIND       PRES   REMARKS
IRON MOUNTAIN  PTSUNNY   71  49  45 N15       30.07F
COPPER HARBOR    N/A     63  52  67 N10       30.06F
$$

ABBREVIATIONS USED IN REMARKS
   TC - TEMPERATURE IN CELSIUS
  WCI - WIND CHILL INDEX
   HX - HEAT INDEX
  VSB - VISIBILITY




USA.gov is the U.S. government's official web portal to all federal, state and local government web resources and services.